FW6178 Weather Reports


time (UTC)temp
F
wind
direction
speed
knots
gust
knots
rain 1hr
in
rain 24hr
in
rain mn
in
humidity
%
barometer
mb
20260505011536 71 49 0.9 5.2 0.00 0.00 0.00 36 1009.9
20260505010035 72 1 0.9 3.5 0.00 0.00 0.00 37 1010.1
20260505004545 71 328 0.9 3.5 0.00 0.00 0.00 34 1010.2
20260505003041 71 51 1.7 4.3 0.00 0.00 0.00 35 1010.3
20260505001540 72 345 1.7 5.2 0.00 0.00 0.00 35 1010.3
20260505000056 72 63 1.7 6.1 0.00 0.00 0.00 39 1010.2
20260504234535 72 43 2.6 7.0 0.00 0.00 0.00 37 1010.2
20260504233034 73 19 2.6 6.1 0.00 0.00 0.00 36 1010.1
20260504231536 73 67 1.7 5.2 0.00 0.00 0.00 38 1010.2
20260504230057 73 10 0.9 4.3 0.00 0.00 0.00 39 1010.2
20260504224537 73 32 0.9 4.3 0.00 0.00 0.00 33 1010.5
20260504223035 72 32 2.6 5.2 0.00 0.00 0.00 37 1010.5
20260504221544 73 56 1.7 6.1 0.00 0.00 0.00 35 1010.6
20260504220035 73 43 1.7 7.0 0.00 0.00 0.00 35 1010.8
20260504214535 73 46 2.6 5.2 0.00 0.00 0.00 37 1010.9
20260504213042 73 352 0.9 3.5 0.00 0.00 0.00 35 1010.9
20260504211535 72 9 0.0 5.2 0.00 0.00 0.00 37 1011.0
20260504210035 72 44 1.7 6.1 0.00 0.00 0.00 38 1011.2
20260504204539 71 352 0.0 5.2 0.00 0.00 0.00 38 1011.3
20260504203041 71 25 1.7 4.3 0.00 0.00 0.00 36 1011.2
20260504201533 71 23 0.9 4.3 0.00 0.00 0.00 38 1011.3
20260504200036 70 331 0.9 6.1 0.00 0.00 0.00 40 1011.3
20260504194537 70 32 2.6 4.3 0.00 0.00 0.00 38 1011.5
20260504193035 69 36 0.9 3.5 0.00 0.00 0.00 40 1011.4
20260504191540 69 17 0.9 5.2 0.00 0.00 0.00 40 1011.5
20260504190038 68 39 0.9 7.0 0.00 0.00 0.00 40 1011.5
20260504184535 68 75 1.7 3.5 0.00 0.00 0.00 45 1011.7
20260504183036 67 48 4.3 8.7 0.00 0.00 0.00 41 1011.8
20260504181535 67 24 0.9 5.2 0.00 0.00 0.00 41 1011.9
20260504180042 66 53 1.7 3.5 0.00 0.00 0.00 43 1011.9
20260504174541 65 329 1.7 3.5 0.00 0.00 0.00 44 1012.2
20260504173037 65 46 2.6 5.2 0.00 0.00 0.00 43 1012.2
20260504171536 64 334 1.7 6.1 0.00 0.00 0.00 44 1012.2
20260504081537 43 0 0.0 0.0 0.00 0.00 0.00 88 1009.9
20260504044536 52 0 0.0 0.0 0.00 0.00 0.00 74 1009.7
20260504043035 52 0 0.0 0.0 0.00 0.00 0.00 78 1009.4
20260504041535 53 0 0.0 0.0 0.00 0.00 0.00 76 1009.4
20260504040041 55 0 0.0 0.0 0.00 0.00 0.00 72 1009.5
20260504034543 56 0 0.0 0.0 0.00 0.00 0.00 70 1009.4
20260504033038 57 0 0.0 0.0 0.00 0.00 0.00 68 1009.3
20260504031544 59 0 0.0 0.0 0.00 0.00 0.00 64 1009.1
20260504030036 61 0 0.0 0.0 0.00 0.00 0.00 61 1009.1
20260504024534 64 0 0.0 0.0 0.00 0.00 0.00 55 1008.9
20260504023041 67 0 0.0 0.0 0.00 0.00 0.00 49 1008.9
20260504021542 71 0 0.0 0.9 0.00 0.00 0.00 45 1008.8
20260504020041 72 0 0.0 0.9 0.00 0.00 0.00 38 1008.8
20260504014536 73 48 1.7 3.5 0.00 0.00 0.00 39 1008.9
20260504013037 74 46 0.0 1.7 0.00 0.00 0.00 39 1008.9